DECAYED

COSMOS 2251 DEB, 34859 (Decayed)

Orbit data source: Space-Track

COSMOS 2251 DEB, 34859 was space debris in LEO originally from a launch on Wed, 16 Jun 1993 UTC launched from the Plesetsk Missile And Space Complex (PKMTR). The debris from Iridium 33, an American commercial communications satellite, has been tracked extensively since its accidental collision with the defunct Russian satellite Cosmos 2251 in 2009. This event, occurring at high speed in low Earth orbit (LEO), generated thousands of pieces of space debris, significantly increasing the risk of further collisions. The Iridium 33 debris cloud has impacted space traffic management and orbital debris mitigation strategies, making it a subject of ongoing study in space situational awareness.

Not visible in the next 10 days
Identifier
34859, 1993-036ACD
Orbit
Decayed
Country
Flag of CISCIS
Related business
Manufacturer
Unknown
Mission
Decayed spacecraft
Bus & Motor
Unknown
Mass
Unknown
Launch date (UTC)
1993-06-16 (33 years ago)
Launch vehicle
Unknown
Launch site
Plesetsk Missile And Space Complex (PKMTR)
Object type
Payload
Rocket body
Debris
Shape & HBR
Unknown shape, 0.1 m
Radar Cross Section
Medium (>0.1 m² and <1 m²)

Expand to show TLE details & history
Last TLE update: 4 months ago

TLE from 4 months ago
0 COSMOS 2251 DEB
1 34859U 93036ACD 26132.40440929  .04326601  26389-1  94873-2 0  9990
2 34859  74.0019  16.0384 0021147 220.0199 139.9484 16.01057574906719
Epoch: 2026-05-12T09:42Z
TLE epoch observation values (Epoch: 2026-05-12T09:42:20.962Z)
Latitude
0.00002°
Longitude
0.27179°
Altitude
285.073 km
Speed
7.73 km/s
True Right ascension
01h 04m 09s
True Declination
0° 00' 00"
Sunlit
Object was in daylight at epoch
Visualization orbit readout
Latitude
Unknown
Longitude
Unknown
Altitude
Unknown
Speed
Unknown
Apparent Right ascension
Unknown
Apparent Declination
Unknown
Sunlit
N/A
Visualization observer readout
Local Sidereal Time
14:08:04
Azimuth
Unknown
Elevation
Unknown
Doppler factor
Unknown
Orbital elements
Apogee altitude
282.993 km
Perigee altitude
254.88 km
Semi-major axis
6,647.074 km
Eccentricity
0.00211
Inclination
74.0019°
RAAN
16.0384°
Arg. of periapsis
220.0199°
True anomaly
140.10402°
Mean anomaly
139.9484°
Eccentric anomaly
140.02624°
Mean motion
4.00495 °/min
Orbital period
89.89 mins
BSTAR
0.0094873
Loading maneuver chart data...
Computing Atmospheric mass density...

Documentation

Showing up to 5 results
|